Estación de Pirque
Ultimos registro cada 15 minutos 94
| N° | Estación | Fecha / Hora | Temperatura | Humedad | Lluvia | Velocidad | Dirección | Radiación | Presion |
| 94 | Pirque | 02-05-2026 23:15 | 6,4 | 85,3 | 0 | 0 | 237 | 0,6 | 940,4 |
| 93 | Pirque | 02-05-2026 23:00 | 8 | 83,8 | 0 | 0 | 239 | 0,6 | 940,2 |
| 92 | Pirque | 02-05-2026 22:45 | 7,9 | 84,4 | 0 | 0 | 247 | 0,6 | 940,2 |
| 91 | Pirque | 02-05-2026 22:30 | 8,1 | 84,5 | 0 | 0 | 247 | 0,6 | 939,8 |
| 90 | Pirque | 02-05-2026 22:15 | 8,4 | 85,6 | 0 | 0 | 247 | 0,6 | 939,6 |
| 89 | Pirque | 02-05-2026 22:00 | 7,3 | 87,2 | 0 | 0 | 247 | 0,6 | 939,6 |
| 88 | Pirque | 02-05-2026 21:45 | 7,4 | 87,2 | 0 | 0 | 247 | 0,6 | 939,6 |
| 87 | Pirque | 02-05-2026 21:30 | 7,4 | 84,9 | 0 | 0 | 247 | 0,6 | 939,9 |
| 86 | Pirque | 02-05-2026 21:15 | 9 | 81,3 | 0 | 0 | 247 | 0,6 | 940,1 |
| 85 | Pirque | 02-05-2026 21:00 | 9,5 | 80,8 | 0 | 0 | 247 | 0,6 | 940,1 |
| 84 | Pirque | 02-05-2026 20:45 | 9,2 | 81,4 | 0 | 0 | 247 | 0,6 | 940,4 |
| 83 | Pirque | 02-05-2026 20:30 | 9,2 | 80,8 | 0 | 0 | 247 | 0,6 | 940,3 |
| 82 | Pirque | 02-05-2026 20:15 | 10,4 | 78,7 | 0 | 0 | 247 | 0,6 | 940,3 |
| 81 | Pirque | 02-05-2026 20:00 | 10,9 | 76,9 | 0 | 0 | 247 | 0,6 | 939,9 |
| 80 | Pirque | 02-05-2026 19:45 | 11,5 | 74,5 | 0 | 0 | 247 | 0,6 | 940 |
| 79 | Pirque | 02-05-2026 19:30 | 13 | 71,4 | 0 | 0 | 247 | 0,6 | 939,6 |
| 78 | Pirque | 02-05-2026 19:15 | 12,1 | 73,5 | 0 | 0 | 247 | 0,6 | 939,1 |
| 77 | Pirque | 02-05-2026 19:00 | 12,6 | 69,3 | 0 | 0 | 247 | 0,6 | 939,5 |
| 76 | Pirque | 02-05-2026 18:45 | 14,2 | 62,6 | 0 | 0 | 247 | 0,6 | 939 |
| 75 | Pirque | 02-05-2026 18:30 | 15,4 | 60,4 | 0 | 0 | 247 | 0,6 | 938,9 |
| 74 | Pirque | 02-05-2026 18:15 | 16,7 | 52,1 | 0 | 0 | 247 | 0,6 | 938,7 |
| 73 | Pirque | 02-05-2026 18:00 | 19,2 | 45,6 | 0 | 0 | 247 | 4,4 | 938,5 |
| 72 | Pirque | 02-05-2026 17:45 | 22,5 | 37,5 | 0 | 0 | 250 | 16,9 | 938,6 |
| 71 | Pirque | 02-05-2026 17:30 | 24,9 | 34,1 | 0 | 0 | 251 | 83,1 | 938,3 |
| 70 | Pirque | 02-05-2026 17:15 | 25,3 | 33 | 0 | 0 | 251 | 131,9 | 938,1 |
| 69 | Pirque | 02-05-2026 17:00 | 26,1 | 31,3 | 0 | 0 | 247 | 173,1 | 938,1 |
| 68 | Pirque | 02-05-2026 16:45 | 26,5 | 30,5 | 0 | 0 | 244 | 221,9 | 937,9 |
| 67 | Pirque | 02-05-2026 16:30 | 27,4 | 29 | 0 | 0 | 254 | 266,9 | 938,1 |
| 66 | Pirque | 02-05-2026 16:15 | 27,5 | 28,2 | 0 | 0 | 260 | 306,9 | 938,3 |
| 65 | Pirque | 02-05-2026 16:00 | 27,8 | 27,4 | 0 | 0 | 250 | 349,4 | 938,1 |
| 64 | Pirque | 02-05-2026 15:45 | 28,2 | 27,9 | 0 | 0 | 263 | 390,6 | 938,2 |
| 63 | Pirque | 02-05-2026 15:30 | 28,6 | 27,7 | 0 | 0 | 277 | 429,4 | 937,9 |
| 62 | Pirque | 02-05-2026 15:15 | 27,4 | 29 | 0 | 0 | 250 | 461,9 | 937,7 |
| 61 | Pirque | 02-05-2026 15:00 | 27,5 | 29,9 | 0 | 0 | 263 | 495,6 | 937,9 |
| 60 | Pirque | 02-05-2026 14:45 | 28,5 | 28,5 | 0 | 0 | 292 | 525,6 | 937,7 |
| 59 | Pirque | 02-05-2026 14:30 | 28,3 | 27,9 | 0 | 0 | 292 | 556,9 | 937,7 |
| 58 | Pirque | 02-05-2026 14:15 | 27,5 | 31,3 | 0 | 0 | 292 | 573,1 | 937,8 |
| 57 | Pirque | 02-05-2026 14:00 | 27,3 | 31,1 | 0 | 0 | 289 | 596,9 | 937,9 |
| 56 | Pirque | 02-05-2026 13:45 | 27,2 | 28,9 | 0 | 0 | 286 | 616,9 | 937,9 |
| 55 | Pirque | 02-05-2026 13:30 | 26,7 | 30,3 | 0 | 0 | 279 | 626,9 | 938 |
| 54 | Pirque | 02-05-2026 13:15 | 26,1 | 32,5 | 0 | 0 | 279 | 639,4 | 937,9 |
| 53 | Pirque | 02-05-2026 13:00 | 25,9 | 35,5 | 0 | 0 | 279 | 643,1 | 938,3 |
| 52 | Pirque | 02-05-2026 12:45 | 25,7 | 37,5 | 0 | 0 | 278 | 644,4 | 938,4 |
| 51 | Pirque | 02-05-2026 12:30 | 24,7 | 40,5 | 0 | 0 | 277 | 631,9 | 938,6 |
| 50 | Pirque | 02-05-2026 12:15 | 24,8 | 39 | 0 | 0 | 275 | 634,4 | 938,6 |
| 49 | Pirque | 02-05-2026 12:00 | 24,6 | 42,5 | 0 | 0 | 275 | 626,9 | 938,7 |
| 48 | Pirque | 02-05-2026 11:45 | 23,5 | 44,8 | 0 | 0 | 275 | 609,4 | 939,1 |
| 47 | Pirque | 02-05-2026 11:30 | 22,5 | 45,8 | 0 | 0 | 275 | 589,4 | 939,2 |
| 46 | Pirque | 02-05-2026 11:15 | 22,3 | 45,8 | 0 | 0 | 275 | 571,9 | 939 |
| 45 | Pirque | 02-05-2026 11:00 | 22 | 49,4 | 0 | 0 | 275 | 548,1 | 939,3 |
| 44 | Pirque | 02-05-2026 10:45 | 21,1 | 52,9 | 0 | 0 | 275 | 520,6 | 939,5 |
| 43 | Pirque | 02-05-2026 10:30 | 21,4 | 55,3 | 0 | 0 | 274 | 491,9 | 939,4 |
| 42 | Pirque | 02-05-2026 10:15 | 20,2 | 57,7 | 0 | 0 | 274 | 456,9 | 939,4 |
| 41 | Pirque | 02-05-2026 10:00 | 17,5 | 67,5 | 0 | 0 | 275 | 418,1 | 939,5 |
| 40 | Pirque | 02-05-2026 09:45 | 17 | 72,3 | 0 | 0 | 275 | 374,4 | 939,7 |
| 39 | Pirque | 02-05-2026 09:30 | 15,9 | 76,2 | 0 | 0 | 275 | 334,4 | 939,9 |
| 38 | Pirque | 02-05-2026 09:15 | 14 | 82,9 | 0 | 0 | 275 | 290,6 | 939,6 |
| 37 | Pirque | 02-05-2026 09:00 | 11,9 | 89,8 | 0 | 0 | 275 | 246,9 | 939,8 |
| 36 | Pirque | 02-05-2026 08:45 | 9,4 | 95,8 | 0 | 0 | 275 | 209,4 | 939,5 |
| 35 | Pirque | 02-05-2026 08:30 | 6,8 | 97,1 | 0 | 0 | 275 | 174,4 | 939,7 |
| 34 | Pirque | 02-05-2026 08:15 | 4,5 | 96,9 | 0 | 0 | 275 | 138,1 | 940,1 |
| 33 | Pirque | 02-05-2026 08:00 | 2,8 | 97,9 | 0 | 0 | 275 | 86,9 | 939,7 |
| 32 | Pirque | 02-05-2026 07:45 | 1,3 | 97,9 | 0 | 0 | 275 | 9,4 | 939,9 |
| 31 | Pirque | 02-05-2026 07:30 | 0,5 | 97,8 | 0 | 0 | 275 | 5,6 | 939,8 |
| 30 | Pirque | 02-05-2026 07:15 | 0,9 | 97,8 | 0 | 0 | 275 | 1,9 | 939,7 |
| 29 | Pirque | 02-05-2026 07:00 | 0,9 | 97,8 | 0 | 0 | 275 | 0,6 | 939,6 |
| 28 | Pirque | 02-05-2026 06:45 | 0,9 | 97,7 | 0 | 0 | 275 | 0,6 | 939,5 |
| 27 | Pirque | 02-05-2026 06:30 | 0,9 | 97,8 | 0 | 0 | 275 | 0,6 | 939,4 |
| 26 | Pirque | 02-05-2026 06:15 | 0,8 | 97,5 | 0 | 0 | 275 | 0,6 | 939,7 |
| 25 | Pirque | 02-05-2026 06:00 | 1 | 97,4 | 0 | 0 | 275 | 0,6 | 939,4 |
| 24 | Pirque | 02-05-2026 05:45 | 1,7 | 97,7 | 0 | 0 | 275 | 0,6 | 939,8 |
| 23 | Pirque | 02-05-2026 05:30 | 1,1 | 97,5 | 0 | 0 | 275 | 0,6 | 939,8 |
| 22 | Pirque | 02-05-2026 05:15 | 1,5 | 97,7 | 0 | 0 | 275 | 0,6 | 940 |
| 21 | Pirque | 02-05-2026 05:00 | 1,7 | 97,5 | 0 | 0 | 275 | 0,6 | 940,2 |
| 20 | Pirque | 02-05-2026 04:45 | 2 | 97,5 | 0 | 0 | 275 | 0,6 | 940,2 |
| 19 | Pirque | 02-05-2026 04:30 | 2 | 97,5 | 0 | 0 | 275 | 0,6 | 940,4 |
| 18 | Pirque | 02-05-2026 04:15 | 2,3 | 97,3 | 0 | 0 | 275 | 0,6 | 940,6 |
| 17 | Pirque | 02-05-2026 04:00 | 2,6 | 97,4 | 0 | 0 | 275 | 0,6 | 940,4 |
| 16 | Pirque | 02-05-2026 03:45 | 2,1 | 97,2 | 0 | 0 | 275 | 0,6 | 940,7 |
| 15 | Pirque | 02-05-2026 03:30 | 2,9 | 97,3 | 0 | 0 | 275 | 0,6 | 940,9 |
| 14 | Pirque | 02-05-2026 03:15 | 2,1 | 97,2 | 0 | 0 | 275 | 0,6 | 941,1 |
| 13 | Pirque | 02-05-2026 03:00 | 3 | 97,2 | 0 | 0 | 275 | 0,6 | 941,3 |
| 12 | Pirque | 02-05-2026 02:45 | 2,4 | 96,9 | 0 | 0 | 275 | 0,6 | 941,4 |
| 11 | Pirque | 02-05-2026 02:30 | 2,7 | 96,9 | 0 | 0 | 275 | 0,6 | 941,4 |
| 10 | Pirque | 02-05-2026 02:15 | 3 | 96,8 | 0 | 0 | 275 | 0,6 | 941,8 |
| 9 | Pirque | 02-05-2026 02:00 | 3,4 | 96,7 | 0 | 0 | 275 | 0,6 | 941,9 |
| 8 | Pirque | 02-05-2026 01:45 | 3,7 | 96,8 | 0 | 0 | 275 | 0,6 | 942,1 |
| 7 | Pirque | 02-05-2026 01:30 | 3,8 | 96,9 | 0 | 0 | 275 | 0,6 | 942 |
| 6 | Pirque | 02-05-2026 01:15 | 3,6 | 96,6 | 0 | 0 | 275 | 0,6 | 942,4 |
| 5 | Pirque | 02-05-2026 01:00 | 3,9 | 96,6 | 0 | 0 | 275 | 0,6 | 942,2 |
| 4 | Pirque | 02-05-2026 00:45 | 3,9 | 96,4 | 0 | 0 | 275 | 0,6 | 942,4 |
| 3 | Pirque | 02-05-2026 00:30 | 4,1 | 96,3 | 0 | 0 | 275 | 0,6 | 942,4 |
| 2 | Pirque | 02-05-2026 00:15 | 4,1 | 96,3 | 0 | 0 | 275 | 0,6 | 942,6 |
| 1 | Pirque | 02-05-2026 00:00 | 4,1 | 96,1 | 0 | 0 | 275 | 0,6 | 942,8 |